Location: Stalbridge
(50.9500°N, 2.3667°W)
Time: 16:54:52
(UTC+00:00)

Daily predictions for brighter satellites

Satellite Brightness Start Highest point End
(mag) Time Altitude Azimuth Time Altitude Azimuth Time Altitude Azimuth
USA 215 3.9 21:01:49 10° ENE 21:07:35 32° SE 21:13:17 10° SSW
ATLAS 5 CENTAUR R/B 1.7 21:07:01 10° SSW 21:11:01 49° SE 21:15:33 10° NE
Cosmos 1844 Rocket 2.9 21:06:19 10° NNW 21:11:54 73° WSW 21:17:26 10° SSE
Gblst 52 Del rocket 4.3 21:06:53 10° WNW 21:12:30 84° SSW 21:18:41 10° ESE
USA 245 3.3 21:09:29 10° SSE 21:12:51 82° WSW 21:17:11 10° NNW
Cosmos 1400 Rocket 2.8 21:08:54 10° NNW 21:12:56 84° ENE 21:16:52 10° SSE
Cosmos 1758 Rocket 3.6 21:11:11 10° S 21:15:41 78° E 21:20:12 10° NNE
Meteor 2-10 Rocket 4.2 21:10:59 10° NNW 21:15:57 54° W 21:21:03 10° S
Lacrosse 5 rocket 2.9 21:14:38 10° W 21:18:40 40° NNW 21:22:31 10° ENE
BREEZE-M DEB (TANK) 4.2 21:15:31 10° W 21:19:24 80° S 21:33:52 10° E
SPOT 5 3.2 21:14:30 10° SSE 21:19:25 56° ENE 21:24:06 10° N
Spot 2 Rocket 3.8 21:18:12 10° S 21:23:16 69° WSW 21:28:24 10° NNW
USA 81 4.5 21:20:44 10° SSE 21:25:45 47° E 21:30:49 10° NNE
BREEZE M DEB (TANK) 3.0 21:23:25 10° W 21:26:00 27° SSW 21:27:39 12° SSE
Cosmos 2181 Rocket 4.2 21:21:22 10° N 21:27:44 67° ENE 21:33:56 10° SSE
Landsat 7 4.1 21:23:02 10° S 21:27:46 67° WSW 21:32:32 10° NNW
Cosmos 1745 Rocket 4.5 21:27:06 10° SSW 21:33:15 65° WNW 21:39:31 10° N
SPOT 1/Viking Rocket 3.8 21:32:45 10° S 21:37:53 68° WSW 21:43:03 10° NNW
Cosmos 1953 Rocket 3.5 21:34:30 10° S 21:38:47 74° E 21:43:08 10° NNE
NOSS 7 (D) 4.3 21:37:18 10° SW 21:40:03 61° NW 21:42:42 10° NE
CZ-4C R/B 4.5 21:36:15 10° NW 21:41:38 29° N 21:47:53 10° ENE
USA 267 3.4 21:35:23 10° ESE 21:41:57 81° NNE 21:48:33 10° WNW
SAR-Lupe-2 3.5 21:39:32 10° NNE 21:43:09 86° ESE 21:46:45 10° SSW
Cosmos 1328 4.2 21:39:37 10° SSW 21:43:34 67° WNW 21:47:33 10° N
Cosmos 2084 3.5 21:39:36 10° NW 21:44:06 88° SW 21:48:05 13° SE
Cosmos 1842 Rocket 4.0 21:41:06 10° N 21:45:22 50° ENE 21:49:02 13° SSE
Cosmos 2322 Rocket 3.6 21:40:25 10° WSW 21:45:44 43° NW 21:51:07 10° NNE
Cosmos 1455 4.1 21:42:58 10° NNW 21:46:14 26° W 21:49:28 10° SSW
Cosmos 1825 Rocket 4.3 21:50:11 10° SSW 21:54:32 55° WNW 21:58:58 10° N
ATLAS CENTAUR R/B 1.1 21:51:56 10° NW 21:55:37 69° SW 21:58:26 16° SSE
Cosmos 1703 4.5 21:53:41 10° SSW 21:57:22 42° WNW 22:01:06 10° N
Cosmos 1825 4.4 21:58:26 10° ESE 21:59:54 12° E 22:01:22 10° ENE
COSMOS 2428 2.7 21:59:55 10° SSW 22:05:30 64° ESE 22:11:08 10° NE
Cosmos 1869 3.4 22:02:24 10° N 22:06:22 65° ENE 22:09:22 17° SSE
Cosmos 2322 3.9 22:03:39 10° SSW 22:09:23 81° WNW 22:15:10 10° NNE
NOSS 3-4 (A) 4.0 22:05:40 10° NW 22:12:28 71° NE 22:19:47 11° SE
NOSS 3-4 (C) 4.0 22:05:46 10° NW 22:12:35 71° NE 22:19:55 11° SE
NOSS 0 Rocket 4.4 22:07:31 11° S 22:13:02 42° ESE 22:18:48 10° NE
Terra 2.1 22:10:34 13° S 22:14:44 67° WSW 22:19:30 10° NNW
Cosmos 2237 Rocket 2.9 22:14:58 15° SSE 22:19:02 35° ESE 22:24:10 10° NE
BREEZE-M DEB 4.3 22:15:35 10° W 22:19:23 57° SSW 22:33:13 10° ESE
Atlas Centaur 2 4.4 22:19:10 10° SSW 22:21:05 11° S 22:21:21 11° S
Cosmos 2219 Rocket 2.2 22:15:42 10° SSW 22:21:18 88° ESE 22:26:57 10° NNE
Cosmos 2344 4.3 22:16:02 14° SSE 22:21:28 31° ESE 22:28:10 10° NE
Cosmos 1538 Rocket 4.1 22:17:14 10° SSW 22:22:37 88° WNW 22:27:59 10° NNE
Cosmos 2360 Rocket 3.6 22:18:16 10° WSW 22:23:36 41° NW 22:29:00 10° NNE
NOSS 3-3 (A) 3.9 22:17:52 10° SSW 22:23:45 74° SE 22:30:29 10° NE
NOSS 3-3 (C) 3.9 22:17:58 10° SSW 22:23:52 73° SE 22:30:36 10° NE
Cosmos 1315 Rocket 3.8 22:22:37 10° NNW 22:26:31 43° W 22:29:55 13° SSW
Thor Agena Rocket 4.2 22:25:24 10° NNE 22:30:11 38° E 22:33:18 19° SSE
Meteor 2-2 Rocket 4.4 22:25:32 10° NNW 22:31:23 79° W 22:35:55 17° S
Cosmos 2333 Rocket 2.4 22:25:45 10° SW 22:31:26 76° WNW 22:37:13 10° NNE
Cosmos 2184 Rocket 4.0 22:27:10 12° S 22:32:57 84° E 22:39:19 10° N
Cosmos 2221 2.8 22:31:48 10° NNW 22:36:09 63° W 22:39:20 18° S
BREEZE-M DEB (TANK) 1.7 22:34:47 10° W 22:39:42 65° SSW 22:41:22 20° ESE
Iridium 2 4.1 22:36:36 10° N 22:40:22 51° E 22:42:26 24° SSE
Cosmos 1371 Rocket 4.2 22:35:13 10° NNW 22:40:28 66° ENE 22:44:15 19° SE
ATLAS 2AS CENTAUR R/B 2.9 22:32:45 10° NW 22:40:30 87° NE 22:46:25 16° SE
GEOS 3 Rocket 4.5 22:36:47 10° NE 22:42:04 56° NW 22:47:18 10° WSW
EO 1 Del DPAF 3.9 22:39:47 10° NNE 22:43:19 37° E 22:45:00 24° SSE
Cosmos 1892 2.6 22:41:59 21° S 22:44:23 78° E 22:48:12 10° NNE
Aureole 2 Rocket 3.4 22:45:05 10° N 22:47:36 29° ENE 22:48:59 19° ESE
Cosmos 1606 4.0 22:46:41 10° N 22:50:11 31° ENE 22:52:19 19° ESE
Cosmos 2278 Rocket 2.5 22:45:36 10° NW 22:51:10 58° WSW 22:54:59 20° S
USA 215 3.2 22:44:34 10° ENE 22:51:11 84° SSE 22:57:45 10° WSW
Cosmos 2112 Rocket 4.3 22:48:24 19° S 22:52:02 54° ESE 22:57:16 10° NNE
Cosmos 2297 4.3 22:46:56 10° NNW 22:52:36 54° NE 22:57:11 15° SE
ATLAS 5 CENTAUR R/B 3.3 22:51:44 10° W 22:55:48 37° NNW 23:00:26 10° NE
Cosmos 158 Rocket 3.9 22:52:56 20° S 22:56:12 59° ESE 23:01:03 10° NNE
Lacrosse 5 rocket 2.8 22:54:39 10° WNW 22:58:31 37° N 23:02:10 10° ENE
Cosmos 1943 Rocket 3.5 22:53:51 10° NNW 22:59:02 35° NE 23:04:12 10° ESE
Spot 4 3.8 22:59:07 23° SSE 23:02:07 87° WSW 23:06:56 10° NNW
SL-16 R/B 3.2 23:00:47 21° SSE 23:03:26 30° ESE 23:08:19 10° NE
Cosmos 2058 3.1 23:01:10 18° SSW 23:04:09 67° WNW 23:08:17 10° N
Cosmos 2056 Rocket 3.6 22:58:59 10° NNW 23:04:26 86° ENE 23:07:58 23° SSE
Cosmos 1408 2.4 23:03:24 27° S 23:05:13 84° E 23:08:48 10° NNE
Nadezhda 3 Rocket 4.2 23:02:59 10° NNW 23:09:20 68° W 23:13:54 20° S
Cosmos 2154 Rocket 4.1 23:07:49 16° SSW 23:12:51 78° W 23:19:07 10° N
Cosmos 2341 Rocket 4.1 23:11:46 22° S 23:15:57 68° E 23:22:07 10° NNE
Cosmos 1076 Rocket 3.9 23:12:53 18° SSW 23:15:59 58° WNW 23:20:13 10° N
Cosmos 1680 Rocket 3.6 23:15:58 15° SSW 23:20:23 83° WNW 23:25:45 10° NNE
USA 267 3.7 23:21:24 22° SSE 23:25:20 44° SW 23:31:34 10° WNW
Cosmos 2151 2.9 23:23:52 27° S 23:26:09 83° E 23:30:26 10° NNE
Helios 1A 3.8 23:24:53 21° SE 23:27:17 43° ENE 23:31:15 10° N
Cosmos 1452 Rocket 3.9 23:26:14 10° NNW 23:31:28 58° ENE 23:35:06 19° SE
CZ-4C R/B 3.7 23:25:10 10° NW 23:31:43 50° NNE 23:39:23 10° ESE
BREEZE-M DEB (TANK) 4.2 23:29:55 10° W 23:32:20 14° WSW 23:32:45 14° SW
COSMOS 2455 3.2 23:27:04 10° NNW 23:33:05 63° NE 23:38:24 13° SE
Cosmos 1825 2.3 23:32:56 27° SSW 23:34:51 68° WNW 23:38:39 10° N
SL-8 Rocket 4.0 23:30:59 24° S 23:34:53 70° E 23:41:01 10° NNE
IRIDIUM 114 4.5 23:32:35 26° SSE 23:35:32 65° E 23:40:44 10° N
Cosmos 1340 3.4 23:34:23 29° SE 23:35:39 39° E 23:39:12 10° NNE
Cosmos 1933 3.4 23:32:21 10° N 23:36:23 73° ENE 23:38:13 31° SSE
ALOS 2 2.6 23:35:27 29° S 23:37:40 77° WSW 23:42:05 10° NNW
Cosmos 1408 Rocket 4.1 23:35:56 27° SSE 23:37:52 44° E 23:42:06 10° NNE
Cosmos 1151 Rocket 3.0 23:33:35 10° N 23:37:57 81° ENE 23:40:03 30° SSE
EO 1 Delta rocket 4.5 23:33:56 10° N 23:38:51 66° WNW 23:43:18 18° SSW
APEX 2.7 23:40:55 10° NNW 23:43:38 58° ENE 23:44:22 39° ESE
Cosmos 2369 Rocket 3.0 23:38:21 10° NNW 23:43:46 48° NE 23:48:49 12° SE
Cosmos 1727 Rocket 4.3 23:37:42 10° N 23:43:54 62° ENE 23:48:04 22° SSE
Cosmos 1980 4.2 23:39:01 10° SW 23:44:36 60° NW 23:50:13 10° NNE
IRIDIUM 103 4.3 23:41:42 26° S 23:44:40 77° E 23:49:54 10° N
Cosmos 44 3.2 23:43:38 30° S 23:45:28 52° ESE 23:49:48 10° NE
GP-B 3.1 23:42:08 10° N 23:46:36 85° W 23:48:50 29° S
Cosmos 371 Rocket 3.2 23:42:54 10° NNW 23:47:48 86° WSW 23:50:25 27° SSE
SL-4 R/B 0.8 23:48:59 58° N 23:48:59 58° N 23:50:46 10° NNW
COSMOS 2428 4.5 23:45:13 10° WSW 23:50:12 31° NW 23:55:14 10° NNE
Helios 1B rocket 4.2 23:50:36 10° NE 23:53:47 21° E 23:55:23 17° ESE
CREW DRAGON DEMO-1 DEB 2.9 23:54:48 52° S 23:54:58 53° SSE 23:57:59 10° E
